sat.trackr.live / text

‹ back to catalog

GPS BIIF-7 (PRN 09)

NORAD 40105 · 2014-045A

PAYLOAD ACTIVE UNKNOWN

§ Identity

Operator
Country
US
Launch date
2014-08-02
Launch site
AFETR
Launch vehicle
Mass (kg)
RCS (m²)
10.79

Purposes: earth_obs, nav

External: N2YO · Heavens-Above · Gunter

§ Orbital elements

Epoch: 2026-09-09T19:31:00.481728Z

Period
717.98 min
Inclination
55.4134°
Eccentricity
0.0036303
Mean motion
2.00563866 rev/d
Perigee alt
20,085.8 km
Apogee alt
20,278.6 km
Semi-major
26,560.3 km
B*
0.0000e+0
RAAN
85.0937°
Arg perigee
119.7770°
Mean anomaly
240.6572°
Rev number
8,777

§ Raw data

GPS BIIF-7  (PRN 09)1 40105U 14045A   26252.81320002  .00000020  00000+0  00000+0 0  99972 40105  55.4134  85.0937 0036303 119.7770 240.6572  2.00563866 87774

JSON: /api/v1/satellites/40105 · /tle

For live sub-satellite position, see the globe view (requires WebGL).

§ Visibility from observer

Set your observer location to see the next 7 days of passes ≥ 10°. The values pass through the URL so the page stays shareable.

No JS? Fill the form by hand. The geolocation button needs JavaScript.